Gulfport, MS

7:57 PM CST on January 18, 2018 (GMT -0600)
Gulfport-Biloxi Regional

Weather History for KGPT - August, 2013

Change the Weather History Date:

Saturday, August 3, 2013

  Actual Average Record
Temperature  
Mean Temperature 84 °F -  
Max Temperature 96 °F 90 °F 99 °F (1986)
Min Temperature 75 °F 72 °F 66 °F (1955)
Cooling Degree Days 19    
Growing Degree Days 34 (Base 50)    
Moisture  
Dew Point 74 °F    
Average Humidity 70    
Maximum Humidity 94    
Minimum Humidity 43    
Precipitation  
Precipitation 0.00 in - - ()
Sea Level Pressure  
Sea Level Pressure 30.02 in    
Wind  
Wind Speed 2 mph (SW)    
Max Wind Speed 8 mph    
Max Gust Speed -    
Visibility 9 miles    
Events      
Averages and records for this station are not official NWS values.
T = Trace of Precipitation, MM = Missing Value Source: NWS Daily Summary

Daily Weather History Graph

Daily Weather History Graph

Search for Another Location

Airport or City:

Trip Planner

Search our weather history database for the weather conditions in past years. The results will help you decide how hot, cold, wet, or windy it might be!

Date:

Astronomy

Aug. 03, 2013 Rise Set
Actual Time 6:15 AM CDT 7:48 PM CDT
Civil Twilight 5:50 AM CDT 8:14 PM CDT
Nautical Twilight 5:18 AM CDT 8:45 PM CDT
Astronomical Twilight 4:46 AM CDT 9:17 PM CDT
Moon 3:28 AM CDT (8/3) 5:28 PM CDT (8/3)
Length of Visible Light 14h 24m
Length of Day
13h 32m
Waning Crescent, 9% of the Moon is Illuminated
Aug 3
Waning Crescent
Aug 6
New
Aug 14
First Quarter
Aug 20
Full
Aug 28
Last Quarter

Hourly Weather History & Observations

Time (CDT) Temp. Heat Index Dew Point Humidity Pressure Visibility Wind Dir Wind Speed Gust Speed Precip Events Conditions
1:53 AM 78.1 °F - 75.0 °F 90% 30.00 in 7.0 mi Calm Calm - N/A   Clear
2:53 AM 77.0 °F - 73.9 °F 90% 29.98 in 6.0 mi Calm Calm - N/A   Clear
3:53 AM 77.0 °F - 73.9 °F 90% 29.98 in 7.0 mi Calm Calm - N/A   Clear
4:53 AM 77.0 °F - 73.9 °F 90% 29.99 in 7.0 mi Calm Calm - N/A   Clear
5:53 AM 75.9 °F - 73.0 °F 91% 29.99 in 6.0 mi Calm Calm - N/A   Clear
6:53 AM 75.9 °F - 73.9 °F 94% 30.01 in 4.0 mi Calm Calm - N/A   Clear
7:53 AM 82.0 °F 89.4 °F 75.9 °F 82% 30.02 in 6.0 mi Calm Calm - N/A   Haze
8:53 AM 84.9 °F 95.3 °F 77.0 °F 77% 30.03 in 9.0 mi NW 4.6 mph - N/A   Clear
9:53 AM 88.0 °F 98.5 °F 75.9 °F 67% 30.04 in 10.0 mi West 3.5 mph - N/A   Scattered Clouds
10:53 AM 90.0 °F 99.0 °F 73.9 °F 59% 30.06 in 10.0 mi NW 3.5 mph - N/A   Clear
11:53 AM 91.9 °F 100.7 °F 73.0 °F 54% 30.06 in 10.0 mi Variable 3.5 mph - N/A   Partly Cloudy
12:53 PM 93.9 °F 98.6 °F 68.0 °F 43% 30.04 in 10.0 mi Calm Calm - N/A   Clear
1:53 PM 91.9 °F 101.3 °F 73.9 °F 55% 30.04 in 10.0 mi South 8.1 mph - N/A   Scattered Clouds
2:53 PM 93.0 °F 101.9 °F 73.0 °F 52% 30.02 in 10.0 mi SSE 4.6 mph - N/A   Partly Cloudy
3:53 PM 93.9 °F 103.4 °F 73.0 °F 51% 30.00 in 10.0 mi SSW 5.8 mph - N/A   Mostly Cloudy
4:53 PM 93.0 °F 103.2 °F 73.9 °F 54% 30.00 in 10.0 mi SSW 4.6 mph - N/A   Clear
4:56 PM 93.2 °F 102.4 °F 73.4 °F 52% 30.00 in 10.0 mi WSW 4.6 mph - N/A   Scattered Clouds
5:53 PM 91.0 °F 101.6 °F 75.0 °F 59% 29.99 in 10.0 mi SSW 4.6 mph - N/A   Scattered Clouds
6:53 PM 89.1 °F 99.1 °F 75.0 °F 63% 30.01 in 10.0 mi South 4.6 mph - N/A   Mostly Cloudy
7:53 PM 88.0 °F 100.2 °F 77.0 °F 70% 30.02 in 10.0 mi South 4.6 mph - N/A   Partly Cloudy
8:53 PM 87.1 °F 97.3 °F 75.9 °F 69% 30.04 in 10.0 mi SSW 4.6 mph - N/A   Clear
9:53 PM 86.0 °F 96.0 °F 75.9 °F 72% 30.05 in 10.0 mi SSW 3.5 mph - N/A   Clear
10:53 PM 84.0 °F 93.7 °F 77.0 °F 79% 30.06 in 10.0 mi Calm Calm - N/A   Clear
11:53 PM 84.0 °F 91.9 °F 75.0 °F 74% 30.05 in 10.0 mi Calm Calm - N/A   Clear